OBJECT A, 62725

Orbit data source: Space-Track

You're viewing an Uncataloged Satellite

Recently launched and/or uncataloged satellites may have evolving metadata. Metadata may include but not limited to: Owner, Maufacturer, Bus, Motor, and Mission.

OBJECT A, 62725 is a satellite owned by SUPARCO (CN) in SSO that was launched on Fri, 17 Jan 2025 UTC via a CHANG ZHENG 2D launch vehicle from the Jiuquan Satellite Launch Center, China (JSC). Unknown objects in Earth's orbit typically refer to objects detected orbiting the Earth but have not yet been identified or cataloged. These objects could be anything from previously untracked satellites, spent rocket stages, debris from satellite collisions, or even natural meteoroids temporarily captured by Earth's gravity.

Loading next visibility...
Identifier
62725, 2025-012A
Orbit
SSO
Country
Flag of CNCN / PRC
Related business
None
Manufacturer
SUPARCO
Mission
Operational Civil Imaging
Bus & Motor
PRSC-EO, Unknown motor
Mass
~500 kg wet, ~500 kg dry
Launch date (UTC)
2025-01-17 (8 months ago)
Launch vehicle
CHANG ZHENG 2D
Launch site
Jiuquan Satellite Launch Center, China (JSC)
Object type
Unknown
Shape & HBR
Box + 2 Pan, 4.0 m
Radar Cross Section
6.755 m², Large (>1 m²)

Expand to show TLE details & history
Last TLE update: 3 days ago

TLE from 3 days ago
0 OBJECT A
1 62725U 25012A   25258.45571374  .00017751  00000-0  88186-3 0  9995
2 62725  97.4551 330.7616 0009253 154.9441 205.2243 15.17687746 36524
Epoch: 2025-09-15T10:56Z
TLE epoch observation values (Epoch: 2025-09-15T10:56:13.667Z)
Latitude
-0.00006°
Longitude
172.04455°
Altitude
521.687 km
Speed
7.599 km/s
True Right ascension
22h 03m 02s
True Declination
0° 00' 00"
Sunlit
Object was in full shadow at epoch
Visualization orbit readout
Latitude
Unknown
Longitude
Unknown
Altitude
Unknown
Speed
Unknown
Apparent Right ascension
Unknown
Apparent Declination
Unknown
Sunlit
N/A
Visualization observer readout
Local Sidereal Time
19:55:38
Azimuth
Unknown
Elevation
Unknown
Doppler factor
Unknown
Orbital elements
Apogee altitude
516.175 km
Perigee altitude
503.428 km
Semi-major axis
6,887.939 km
Eccentricity
0.00093
Inclination
97.4551°
RAAN
330.7616°
Arg. of periapsis
154.9441°
True anomaly
205.17916°
Mean anomaly
205.2243°
Eccentric anomaly
205.20173°
Mean motion
3.79673 °/min
Orbital period
94.82 mins
BSTAR
0.00088186
Loading maneuver chart data...
Computing Atmospheric mass density...
Loading historical data...
Loading historical data...
Loading historical data...
Loading historical data...
Loading historical data...
Loading historical data...
Loading historical data...
Other satellites on launch #12 in the year 2025 (2025-01-17 UTC)

Documentation

Showing up to 5 results
|